Location: Unspecified
(51.5147°N, 7.4673°E)
Time: 16:28:27
(UTC+01:00)

Transit 4A - Pass Details

Date: 19 February 2026
Orbit: 864 x 977 km, 66.8° (Epoch: 10 March)

Event Time Altitude Azimuth Distance (km) Brightness Sun altitude
Exits shadow 05:11:58 51° 264° (W) 1,123 7.9 -23.1°
Maximum altitude 05:13:13 63° 314° (NW) 1,007 7.8 -22.9°
Drops below altitude 10° 05:19:16 10° 35° (NE) 2,629 10.8 -21.9°
Sets 05:21:53 0° 39° (NE) 3,593 11.7 -21.5°
